Temperature
5 6 6 6 6 6 6 6 6 6 6 8 8 7 8 9 9 9 9 9 9 9 9 8 8 8 8 7 7 7 7 7 7 7 7 6 6 6 6 6 6 5 5 5
5 6 5 6 6 6 6 6 6 6 7 8 8 8 8 8 8 8 9 9 9 9 8 8 8 8 7 7 7 7 7 7 7 6 6 6 6 6 5 5 5 5 5 5
4 5 5 6 6 6 6 6 6 6 7 7 7 7 8 8 8 9 9 9 9 8 8 8 8 8 7 7 6 6 6 6 6 6 6 6 5 5 5 5 5 4 4 4
4 5 6 7 7 7 6 6 6 6 6 6 7 8 8 9 8 9 8 8 8 8 8 8 8 7 7 7 6 6 6 6 6 5 5 5 5 5 5 4 4 4 4 4
3 4 5 6 7 7 7 7 6 6 6 6 7 7 7 8 8 8 8 8 8 8 8 8 7 7 7 6 6 6 6 6 6 5 5 5 5 4 4 4 4 3 3 3
3 5 6 7 7 7 7 7 7 6 6 6 6 5 6 8 8 8 8 8 8 7 7 7 7 6 6 6 6 6 6 5 5 5 5 4 4 4 4 3 3 3 3 2
3 4 5 6 6 7 7 7 7 7 6 6 5 6 7 7 7 7 7 7 7 7 7 7 6 6 6 6 5 5 5 5 5 4 4 4 4 3 3 3 3 2 2 2
2 3 5 6 5 5 6 7 7 7 7 6 6 7 7 6 6 6 6 6 6 6 6 6 6 6 5 5 5 5 5 4 4 4 4 3 3 3 3 2 2 2 2 2
3 5 6 6 6 7 7 7 7 7 7 6 6 6 6 6 6 6 6 6 6 5 5 5 5 5 5 5 5 4 4 4 4 4 3 3 3 2 2 2 2 2 1 1
3 3 5 6 6 7 6 6 6 6 6 6 5 5 5 5 5 5 5 5 5 5 5 5 5 5 4 4 4 4 4 4 3 3 3 2 2 2 2 2 1 1 1 1
2 3 4 6 6 6 6 6 6 6 5 5 5 5 5 5 5 5 5 5 5 5 4 4 4 4 4 4 3 3 3 3 3 3 2 2 2 2 1 1 1 1 0 0
3 4 4 5 6 5 5 5 5 5 5 5 4 4 4 4 4 4 4 4 4 4 4 4 4 4 3 3 3 3 3 3 2 2 2 2 1 1 1 1 1 0 -0 -1
5 5 5 5 5 5 4 4 4 4 4 4 4 4 3 3 3 3 4 3 3 3 3 3 3 3 3 3 2 2 2 2 2 2 1 1 1 1 1 0 0 -0 -0 -1
4 4 3 4 4 4 3 3 3 3 3 3 3 3 3 3 3 3 3 3 3 3 3 3 2 2 2 2 2 2 2 2 1 1 1 1 0 0 -0 -0 -0 -0 -1 -1
3 3 3 3 3 3 3 2 2 2 2 2 2 2 2 2 2 2 2 2 2 2 2 2 2 2 2 2 2 1 1 1 1 1 0 0 -0 -0 -1 -1 -1 -1 -2 -2
2 2 2 2 2 2 2 2 2 2 2 1 1 1 2 2 2 2 2 2 2 2 2 1 1 1 1 1 1 1 1 0 0 -0 -0 -0 -1 -1 -1 -2 -2 -2 -2 -2
1 1 1 1 1 1 1 1 1 1 1 1 1 1 1 1 1 1 1 1 1 1 1 1 1 1 1 1 0 0 0 -0 -1 -1 -1 -1 -1 -2 -2 -2 -2 -3 -3 -3
0 0 0 0 0 0 0 0 0 0 0 0 0 0 0 0 0 0 0 0 0 0 0 0 0 0 0 -0 -0 -0 -1 -1 -1 -1 -1 -2 -2 -2 -3 -3 -3 -3 -3 -3
0 -0 -0 -0 -0 -0 -0 -0 -0 -0 -0 -0 -0 -0 -0 -0 -0 -0 -0 -0 -0 -0 0 -0 -0 -0 -1 -1 -1 -1 -1 -1 -2 -2 -2 -2 -3 -3 -3 -3 -4 -4 -4 -4
-0 -0 -1 -1 -1 -1 -1 -1 -1 -1 -1 -1 -1 -1 -1 -1 -1 -1 -1 -1 -1 -1 -1 -1 -1 -1 -1 -1 -2 -2 -2 -2 -2 -3 -3 -3 -3 -4 -4 -4 -4 -4 -4 -5
-1 -1 -1 -1 -1 -1 -1 -1 -1 -1 -1 -1 -1 -1 -1 -1 -1 -2 -2 -1 -1 -1 -1 -1 -1 -2 -2 -2 -2 -2 -3 -3 -3 -3 -4 -4 -4 -4 -4 -4 -5 -5 -5 -5
-1 -1 -1 -2 -1 -1 -1 -1 -1 -2 -2 -2 -2 -2 -2 -2 -2 -2 -2 -2 -2 -2 -2 -2 -2 -2 -2 -3 -3 -3 -3 -3 -4 -4 -4 -4 -4 -5 -5 -5 -5 -5 -5 -5
-2 -2 -2 -2 -2 -2 -2 -2 -2 -2 -2 -2 -2 -3 -3 -3 -3 -3 -3 -3 -3 -3 -3 -2 -3 -3 -3 -3 -3 -4 -4 -4 -4 -4 -5 -5 -5 -5 -5 -5 -6 -6 -6 -6
-2 -2 -2 -2 -3 -2 -2 -2 -3 -3 -3 -3 -3 -3 -3 -3 -3 -3 -3 -3 -3 -3 -3 -3 -3 -3 -4 -4 -4 -4 -4 -5 -5 -5 -5 -5 -5 -5 -6 -6 -6 -6 -6 -6
-2 -3 -3 -3 -3 -3 -3 -3 -3 -3 -3 -4 -4 -4 -4 -4 -4 -4 -4 -4 -4 -4 -4 -4 -4 -4 -4 -4 -5 -5 -5 -5 -5 -5 -5 -5 -6 -6 -6 -6 -6 -7 -7 -7
-3 -3 -3 -3 -4 -4 -4 -4 -4 -4 -4 -4 -4 -4 -4 -4 -4 -4 -4 -4 -4 -4 -4 -4 -5 -5 -5 -5 -5 -5 -5 -5 -5 -5 -6 -6 -6 -6 -6 -6 -7 -7 -7 -7
-4 -4 -4 -4 -4 -4 -4 -4 -4 -4 -5 -5 -5 -5 -5 -5 -5 -5 -5 -5 -5 -5 -5 -5 -5 -5 -5 -5 -5 -5 -5 -6 -6 -6 -6 -6 -6 -6 -7 -7 -7 -7 -7 -7
Wind_Speed
8 9 7 9 11 8 9 9 9 9 10 13 10 8 6 5 4 4 4 4 5 5 5 5 5 5 6 6 5 5 5 5 6 5 4 4 3 3 3 3 4 4 3 3
6 6 7 11 12 10 10 8 10 11 13 11 8 5 5 5 5 5 6 6 6 6 6 6 7 6 6 6 6 5 6 6 5 4 4 3 3 3 3 3 3 3 3 3
5 6 6 8 8 7 6 7 7 9 9 6 4 5 6 6 5 6 6 6 6 7 7 7 7 7 7 6 5 5 6 5 5 5 4 4 3 3 3 3 2 3 3 3
3 4 5 7 2 5 6 6 7 6 6 5 6 6 5 5 5 6 5 5 6 6 6 5 5 5 5 5 5 6 5 5 5 5 4 3 3 3 2 2 2 2 3 3
2 4 8 8 4 2 3 5 3 4 6 6 5 5 5 4 3 5 5 5 5 6 5 4 5 5 5 5 5 5 6 6 5 5 5 4 4 3 2 2 2 2 2 3
3 4 7 6 3 1 0 4 3 1 3 4 3 4 6 6 4 5 4 4 4 3 3 4 4 5 6 5 5 6 6 6 5 5 5 5 4 3 2 2 2 2 2 3
6 7 9 7 3 1 2 5 3 2 3 3 3 5 6 6 5 4 4 3 2 2 3 4 4 5 6 5 7 6 5 4 4 4 5 4 3 2 2 2 1 2 3 3
6 6 9 3 2 3 5 4 4 4 4 4 6 6 5 5 5 5 4 3 2 2 2 3 4 6 6 7 6 4 4 4 4 4 4 3 3 2 2 2 2 2 3 3
9 9 5 3 5 5 4 5 5 5 6 5 6 5 5 5 6 5 5 4 3 2 3 3 4 6 7 6 4 4 4 5 4 4 3 3 3 3 2 2 2 2 2 3
6 8 7 6 6 6 5 6 7 6 6 5 6 7 7 6 6 5 5 4 3 3 3 4 4 5 6 5 5 5 5 5 4 4 3 3 3 3 3 3 3 3 3 4
7 8 7 6 5 6 6 6 6 6 5 6 7 8 7 7 7 6 5 4 3 4 5 6 5 5 5 4 5 5 5 5 4 4 4 4 4 4 4 5 5 5 4 4
9 8 7 9 7 6 7 7 7 7 7 6 6 8 8 7 7 6 6 5 4 5 6 6 5 5 4 5 6 6 5 5 4 4 4 3 3 3 5 6 7 8 7 6
11 9 8 9 8 7 7 7 7 7 8 8 7 6 7 7 6 6 6 5 6 6 6 5 5 5 5 5 6 7 6 6 4 4 4 4 3 3 3 3 5 6 7 7
7 6 8 7 7 6 6 6 6 6 6 6 6 5 5 6 6 6 7 7 6 6 5 5 5 6 5 5 5 6 6 6 5 5 5 4 4 4 3 3 4 3 4 7
7 6 8 8 7 7 5 5 6 7 6 6 5 5 5 6 7 7 7 6 4 4 5 5 5 6 4 5 5 6 5 4 4 4 4 4 4 4 3 4 4 4 4 5
5 5 5 6 7 7 6 6 6 7 7 7 6 6 6 6 7 7 5 3 3 5 5 5 6 5 4 4 5 4 4 6 4 4 3 3 3 3 3 4 4 4 4 4
4 5 5 6 7 7 7 7 7 8 7 7 7 7 6 6 6 6 5 4 5 5 5 5 5 4 3 4 4 4 3 4 4 3 3 4 3 4 4 4 4 5 5 5
5 6 6 7 7 7 7 7 6 7 7 7 7 6 6 6 7 7 6 5 4 4 5 5 4 3 3 3 3 3 3 3 3 4 3 3 3 4 4 4 5 5 5 5
4 5 5 6 6 6 6 7 7 7 7 6 6 6 7 7 6 6 4 4 4 5 5 4 4 2 3 4 3 3 3 3 3 3 3 4 4 3 4 4 4 4 5 4
4 4 5 5 5 5 6 6 6 6 6 5 5 6 6 6 5 4 4 4 5 5 4 4 3 3 3 3 3 3 4 4 4 3 3 3 4 4 4 4 4 5 5 5
5 5 5 5 6 6 6 6 5 6 6 5 5 6 6 6 5 3 3 5 5 4 3 4 2 3 3 3 3 3 3 3 4 4 4 3 4 4 4 4 4 5 5 5
5 4 5 5 5 6 6 5 4 5 5 5 4 4 4 5 4 4 4 4 4 5 3 3 2 3 4 3 3 3 4 4 4 3 3 4 4 4 4 5 5 5 5 5
4 4 5 5 5 5 6 5 4 4 4 5 5 5 4 4 3 3 5 3 3 5 3 3 4 5 5 2 2 3 4 4 4 4 4 4 4 4 5 5 5 5 5 5
4 5 5 4 4 4 5 6 5 4 4 4 4 4 4 3 4 3 3 5 6 6 3 4 5 5 4 1 2 3 3 4 4 4 4 4 4 4 4 5 5 5 5 6
5 5 4 4 4 4 5 5 5 5 4 4 4 4 3 3 3 4 3 4 5 5 3 4 5 5 2 2 2 3 3 4 4 4 4 4 4 4 5 5 5 5 5 5
4 4 4 4 4 4 4 4 4 4 4 4 5 4 3 3 3 3 3 3 4 4 3 2 3 3 2 2 3 3 3 4 4 4 4 4 5 5 4 4 5 5 5 5
4 3 3 4 3 3 3 3 3 4 4 4 5 5 4 4 3 3 3 3 3 3 3 3 2 2 2 3 3 3 3 3 4 4 4 4 4 4 4 5 4 4 4 5
Wind_Direction
256 266 263 261 264 246 223 219 229 253 259 271 275 274 270 266 260 251 245 236 225 217 216 214 208 205 203 202 197 188 185 192 202 202 197 194 199 206 207 209 216 219 225 235
284 277 277 274 267 249 240 235 240 260 272 271 276 277 273 266 251 246 245 241 236 225 215 214 210 206 204 206 200 186 189 199 198 189 187 192 201 202 204 219 225 218 225 232
278 303 318 280 253 216 221 221 211 235 254 283 298 289 268 259 253 245 246 245 238 229 219 216 212 202 201 204 196 187 191 194 191 188 189 195 194 191 205 216 221 226 228 230
281 340 263 249 249 210 228 251 233 244 268 283 277 280 271 248 240 252 257 254 245 235 222 216 206 199 191 183 185 189 191 193 192 186 191 188 182 198 210 210 218 230 238 236
217 269 277 291 278 214 224 277 255 251 282 300 312 333 314 285 260 251 253 254 246 235 223 208 197 187 172 179 186 192 199 199 196 187 187 188 195 207 214 210 230 239 248 247
196 240 254 257 270 282 108 281 296 284 296 312 343 329 293 301 298 286 282 271 255 237 209 202 202 174 170 183 189 204 208 201 192 186 187 195 203 204 201 205 225 234 255 257
213 239 264 261 267 76 209 264 297 285 282 282 251 249 276 296 298 293 292 288 273 225 210 212 191 170 181 191 209 215 201 185 183 184 190 193 189 190 194 202 218 241 261 269
189 218 255 249 143 191 241 285 291 279 272 270 268 278 287 290 292 299 302 297 284 250 240 219 186 179 194 211 217 197 181 183 188 189 190 182 178 193 195 192 217 250 268 283
200 222 254 225 227 255 260 275 279 274 276 273 274 278 284 288 289 288 284 278 271 247 245 238 207 193 206 219 198 182 183 192 196 193 194 186 186 198 208 208 220 247 255 272
249 262 263 261 266 274 261 260 272 272 274 270 273 276 280 282 282 281 276 270 266 250 244 247 232 221 220 213 187 182 192 200 196 193 202 203 201 199 204 214 225 238 246 258
258 274 291 271 253 263 270 270 276 281 275 268 268 273 272 275 274 270 271 266 255 244 246 248 238 233 227 205 185 191 199 202 202 202 204 211 216 218 219 222 219 228 237 238
251 252 253 270 273 272 272 277 279 281 285 278 260 265 271 270 268 266 268 266 259 250 246 248 235 233 228 208 193 193 202 205 203 204 209 211 219 253 249 241 250 250 249 249
252 264 259 268 275 271 267 273 276 272 269 277 277 266 268 273 272 269 268 264 256 252 246 240 233 233 229 212 199 199 206 207 204 205 206 209 213 221 260 283 268 259 256 260
255 267 274 272 271 274 271 274 278 279 274 271 274 277 275 276 280 276 270 264 259 254 247 236 234 240 233 211 202 206 208 210 206 208 208 210 214 220 228 247 275 281 275 276
263 252 256 271 281 284 282 283 288 288 287 287 281 278 277 277 278 278 277 273 264 256 249 238 240 249 235 207 205 208 207 210 209 208 209 213 216 220 228 236 249 268 282 286
279 282 276 273 276 282 284 283 279 280 283 283 284 281 277 274 276 281 283 274 261 259 257 248 247 250 232 209 206 210 214 218 212 206 211 217 217 223 232 237 246 253 257 262
270 282 281 280 280 281 280 272 268 272 276 276 278 283 286 286 288 288 285 276 263 260 255 250 253 252 228 211 207 211 211 215 217 214 214 216 219 227 232 237 244 252 255 259
247 256 263 267 273 280 283 280 276 277 276 276 283 284 280 274 273 277 279 284 286 283 270 258 254 248 232 218 209 208 205 208 210 216 217 218 228 228 231 239 246 256 266 270
282 277 284 283 277 275 278 280 280 279 281 282 281 276 271 268 268 271 275 274 272 276 276 266 268 248 235 231 219 203 202 209 218 222 222 236 245 235 239 243 249 255 261 266
306 303 299 298 297 289 285 286 286 287 286 283 283 283 283 279 275 271 264 263 259 257 263 268 260 243 238 232 223 204 206 210 220 229 233 232 238 243 246 251 255 257 258 262
304 303 303 303 305 301 292 289 291 294 297 293 282 281 284 288 286 275 272 282 283 274 269 268 255 245 239 236 230 210 210 217 225 230 234 240 246 251 253 256 259 261 262 265
299 297 300 304 307 309 308 306 301 302 308 310 302 294 291 293 295 292 273 263 274 290 294 267 257 254 254 254 217 211 215 221 229 234 236 240 244 250 255 257 257 261 261 260
289 292 299 304 303 304 315 320 315 311 309 306 304 300 293 289 289 287 296 294 286 292 296 268 271 272 275 254 211 214 220 225 231 236 239 241 244 249 256 259 258 258 259 262
294 295 297 301 310 319 321 320 318 315 309 306 303 298 296 304 307 286 270 289 299 302 291 279 287 285 292 253 226 227 231 235 240 243 245 247 248 250 253 255 258 258 258 262
292 294 298 305 306 303 301 308 318 321 321 319 315 312 304 285 278 293 297 293 298 306 297 291 294 295 288 247 244 245 245 245 249 248 241 244 248 251 251 250 250 256 260 261
290 292 290 286 284 288 296 303 310 314 318 320 321 321 320 316 305 301 305 303 299 305 304 289 285 289 270 256 254 256 256 264 270 262 250 254 253 253 254 254 256 257 260 261
293 292 297 302 300 293 293 296 298 304 309 308 311 317 320 322 323 321 318 316 314 310 301 295 288 281 275 270 267 266 264 261 259 258 256 255 253 252 252 253 256 259 261 262
Height
1518 1514 1514 1511 1508 1507 1509 1508 1509 1499 1494 1485 1482 1480 1478 1477 1476 1475 1475 1474 1474 1475 1475 1476 1476 1477 1478 1479 1480 1481 1482 1482 1483 1484 1484 1484 1485 1485 1485 1484 1485 1485 1485 1484
1518 1512 1511 1507 1502 1502 1501 1500 1498 1495 1490 1480 1479 1478 1476 1475 1474 1473 1472 1472 1472 1472 1472 1473 1473 1474 1475 1476 1477 1478 1478 1479 1480 1480 1480 1481 1481 1481 1481 1481 1481 1480 1480 1480
1520 1514 1510 1504 1494 1494 1494 1492 1491 1491 1485 1479 1478 1476 1475 1473 1472 1471 1470 1470 1470 1469 1469 1470 1471 1471 1472 1473 1474 1475 1475 1476 1476 1477 1477 1477 1477 1477 1477 1477 1476 1476 1476 1476
1521 1516 1511 1494 1487 1487 1488 1486 1485 1483 1480 1479 1477 1474 1473 1472 1470 1469 1468 1468 1467 1467 1467 1467 1468 1469 1469 1470 1471 1471 1472 1472 1473 1473 1473 1473 1473 1473 1473 1473 1473 1472 1472 1472
1521 1518 1507 1492 1486 1485 1486 1484 1481 1480 1479 1477 1475 1473 1471 1470 1469 1468 1467 1466 1465 1465 1464 1464 1465 1465 1466 1466 1467 1467 1468 1469 1469 1470 1470 1470 1470 1470 1469 1469 1469 1469 1468 1468
1518 1513 1503 1489 1484 1483 1485 1484 1480 1478 1477 1476 1475 1477 1472 1469 1468 1466 1465 1463 1462 1462 1461 1461 1462 1462 1462 1463 1463 1463 1464 1465 1466 1466 1467 1466 1466 1466 1466 1466 1465 1465 1465 1464
1515 1511 1499 1486 1483 1483 1488 1484 1479 1477 1476 1475 1474 1474 1471 1468 1466 1464 1462 1461 1460 1459 1458 1458 1459 1459 1459 1459 1460 1461 1461 1462 1463 1463 1463 1463 1463 1462 1462 1462 1462 1461 1461 1461
1511 1509 1498 1482 1483 1484 1482 1478 1477 1475 1474 1473 1471 1469 1467 1465 1463 1461 1459 1458 1457 1456 1456 1455 1456 1456 1455 1456 1456 1457 1458 1458 1459 1459 1459 1459 1459 1459 1459 1458 1458 1457 1457 1456
1496 1490 1482 1480 1479 1479 1478 1476 1475 1473 1472 1470 1468 1466 1464 1462 1461 1459 1457 1455 1454 1453 1453 1452 1452 1452 1452 1452 1453 1453 1454 1454 1455 1455 1455 1455 1455 1455 1455 1454 1454 1453 1452 1451
1488 1481 1478 1477 1476 1475 1475 1473 1472 1470 1469 1467 1465 1463 1461 1459 1457 1455 1454 1452 1451 1450 1449 1449 1449 1448 1449 1449 1449 1449 1450 1450 1451 1451 1451 1451 1451 1451 1451 1451 1450 1449 1448 1447
1483 1477 1474 1472 1472 1472 1471 1469 1468 1466 1465 1463 1461 1459 1457 1455 1453 1451 1450 1448 1447 1446 1445 1445 1445 1444 1445 1445 1445 1445 1446 1446 1447 1447 1447 1447 1447 1447 1447 1447 1446 1445 1444 1443
1476 1472 1472 1469 1468 1467 1466 1464 1463 1461 1459 1458 1456 1454 1452 1450 1448 1447 1445 1444 1443 1442 1441 1441 1440 1440 1440 1440 1440 1441 1441 1442 1442 1442 1442 1443 1443 1443 1442 1442 1442 1441 1440 1439
1468 1467 1466 1464 1464 1462 1461 1459 1458 1456 1454 1452 1451 1449 1447 1445 1443 1442 1440 1439 1438 1437 1436 1436 1435 1435 1435 1436 1436 1436 1436 1437 1437 1437 1437 1438 1438 1437 1437 1437 1437 1436 1435 1434
1464 1463 1460 1459 1458 1457 1456 1454 1452 1450 1449 1447 1446 1444 1442 1440 1438 1437 1435 1434 1433 1432 1431 1431 1430 1430 1431 1431 1431 1431 1431 1432 1432 1432 1433 1433 1433 1433 1432 1431 1431 1430 1430 1429
1458 1457 1456 1454 1453 1451 1450 1449 1447 1445 1443 1442 1440 1439 1437 1435 1433 1432 1431 1429 1428 1427 1426 1426 1425 1425 1426 1426 1426 1426 1426 1427 1427 1427 1427 1428 1427 1427 1427 1426 1426 1425 1424 1423
1452 1451 1450 1449 1447 1446 1445 1443 1442 1439 1438 1436 1435 1433 1432 1430 1428 1427 1426 1425 1423 1422 1422 1421 1420 1421 1421 1421 1421 1421 1421 1422 1422 1422 1422 1422 1422 1422 1421 1421 1420 1420 1419 1418
1448 1446 1445 1444 1442 1441 1440 1438 1437 1435 1433 1431 1430 1428 1427 1425 1423 1422 1421 1420 1419 1418 1417 1417 1416 1416 1416 1416 1416 1416 1416 1417 1417 1417 1417 1417 1417 1417 1416 1416 1415 1414 1414 1413
1444 1443 1442 1440 1438 1436 1435 1433 1432 1430 1429 1427 1425 1423 1422 1420 1419 1417 1416 1415 1414 1413 1413 1412 1412 1412 1412 1412 1412 1412 1412 1412 1412 1412 1412 1412 1412 1412 1411 1411 1410 1409 1408 1408
1440 1438 1437 1436 1434 1433 1431 1429 1427 1425 1424 1422 1420 1418 1417 1415 1414 1413 1412 1411 1410 1409 1409 1408 1408 1408 1407 1407 1407 1407 1407 1407 1407 1407 1407 1407 1407 1406 1406 1406 1405 1404 1403 1402
1436 1435 1433 1432 1430 1429 1427 1425 1423 1421 1419 1417 1416 1414 1412 1410 1409 1408 1407 1406 1406 1405 1405 1404 1404 1403 1403 1403 1403 1403 1403 1403 1402 1402 1402 1402 1402 1401 1401 1401 1400 1399 1398 1397
1434 1432 1430 1429 1427 1425 1423 1421 1419 1417 1415 1413 1411 1409 1408 1406 1405 1404 1403 1402 1402 1401 1401 1400 1399 1399 1399 1398 1398 1398 1398 1398 1398 1397 1397 1397 1397 1396 1396 1395 1394 1393 1392 1391
1431 1429 1428 1426 1424 1422 1420 1418 1416 1413 1411 1409 1407 1406 1404 1402 1401 1400 1400 1399 1398 1397 1396 1396 1395 1395 1394 1394 1394 1393 1393 1393 1393 1393 1392 1392 1391 1391 1390 1390 1389 1388 1387 1385
1429 1427 1425 1423 1421 1419 1417 1415 1413 1410 1408 1406 1404 1402 1401 1399 1398 1397 1395 1395 1394 1393 1392 1392 1391 1390 1390 1389 1389 1389 1389 1388 1388 1388 1387 1387 1386 1386 1385 1384 1383 1382 1381 1380
1426 1424 1422 1420 1418 1416 1414 1412 1410 1408 1405 1403 1401 1400 1398 1396 1395 1394 1393 1391 1390 1389 1388 1388 1387 1386 1386 1385 1384 1384 1384 1383 1383 1383 1383 1382 1381 1381 1380 1379 1378 1377 1375 1374
1423 1421 1419 1417 1415 1413 1412 1409 1407 1405 1403 1400 1399 1397 1395 1394 1392 1390 1389 1388 1387 1385 1384 1384 1383 1382 1381 1380 1380 1380 1379 1379 1379 1378 1378 1377 1376 1375 1374 1373 1372 1371 1370 1369
1420 1418 1416 1415 1413 1411 1409 1407 1405 1403 1400 1398 1396 1394 1393 1391 1389 1387 1386 1384 1383 1382 1381 1380 1379 1378 1378 1377 1376 1376 1375 1375 1374 1373 1373 1372 1371 1370 1369 1368 1367 1366 1365 1363
1417 1415 1413 1411 1410 1409 1407 1405 1403 1401 1398 1396 1394 1392 1391 1389 1387 1385 1383 1381 1380 1379 1378 1377 1376 1375 1374 1374 1373 1372 1371 1370 1370 1369 1368 1367 1366 1365 1364 1363 1362 1361 1360 1358